Regional Weather Roundup
Issued by NWS Albany, NY

Home | Current Version | Previous Version | Graphics & Text | Print | Product List | Glossary Off
Versions: 1 2 3 4 5 6 7 8 9 10 11 12 13 14 15 16 17 18 19 20 21 22 23 24 25 26 27 28 29 30 31 32 33 34 35 36 37 38 39 40 41 42 43 44 45 46 47 48 49 50

769
ASUS41 KALY 050510
RWRALY

NEW YORK STATE HOURLY WEATHER ROUNDUP
NATIONAL WEATHER SERVICE ALBANY NY
1200 AM EST FRI FEB 05 2016

NOTE: "FAIR" INDICATES FEW OR NO CLOUDS BELOW 12,000 FEET WITH NO
SIGNIFICANT WEATHER AND/OR NO OBSTRUCTIONS TO VISIBILITY.

NYZ032-033-038>043-046>054-057>066-NYZ062>081-050600-
EAST


CITY           SKY/WX    TMP DP  RH WIND       PRES   REMARKS
ALBANY         CLOUDY    36  23  59 NW9       30.14S WCI  29
GLENS FALLS    CLOUDY    34  22  61 NW7       30.13R WCI  28
POUGHKEEPSIE   CLOUDY    41  27  57 N9        30.09F
MONTGOMERY     CLOUDY    39  28  64 NE8       30.08F WCI  33
WHITE PLAINS   CLOUDY    41  25  53 N10       30.05F
ISLIP          LGT RAIN  41  32  70 N12       30.02F
NEW YORK CITY  CLOUDY    44  27  51 N20       30.06S
CENTRAL PARK   CLOUDY    44  26  49 N13G20    30.08S
$$

NYZ005>009-017-018-044>046-055-056-050600-
CENTRAL


CITY           SKY/WX    TMP DP  RH WIND       PRES   REMARKS
FULTON         CLOUDY    35  23  61 NW5       30.19R WCI  31
SYRACUSE       CLOUDY    33  26  75 NW5       30.18R WCI  29
ROME           CLOUDY    30  26  85 N3        30.18S
ELMIRA         CLOUDY    34  27  75 E5        30.16R WCI  30
BINGHAMTON     CLOUDY    31  25  78 N8        30.11S WCI  23
MONTICELLO     CLOUDY    34  27  75 NW7       30.08F WCI  28
$$

NYZ026>034-041>043-050600-
NORTH


CITY           SKY/WX    TMP DP  RH WIND       PRES   REMARKS
WATERTOWN      CLOUDY    28  21  75 CALM      30.18S
FORT DRUM      NOT AVBL
MASSENA        CLOUDY    31  23  72 NW5       30.17S WCI  26
SARANAC LAKE   CLOUDY    29  19  66 W8        30.07R WCI  21
PLATTSBURGH    CLOUDY    33  26  75 CALM      30.14R
$$

NYZ001>004-010>016-019>021-050600-
WEST


CITY           SKY/WX    TMP DP  RH WIND       PRES   REMARKS
NIAGARA FALLS  LGT SNOW  33  26  75 NE5       30.19R WCI  29
BUFFALO        FLURRIES  33  27  78 NW5       30.18S WCI  29
DUNKIRK        FLURRIES  31  29  92 SW5       30.20R WCI  26
JAMESTOWN      CLOUDY    28  23  80 W9        30.13S WCI  20
WELLSVILLE     FLURRIES  29  23  78 N5        30.12S WCI  24
ROCHESTER      CLOUDY    33  26  75 CALM      30.19R
PENN YAN       CLOUDY    32  26  78 NW5       30.16F WCI  27
$$

             KEY
       WCI = WIND CHILL INDEX
       VSB = VISIBILITY
       HX  = HEAT INDEX
$$




USA.gov is the U.S. government's official web portal to all federal, state and local government web resources and services.